Location: Kershaw
(34.5481°N, 80.5823°W)
Time: 22:03:52
(UTC+00:00)

Vanguard 2 Rocket - Pass Details

Date: 09 October 2022
Orbit: 555 x 3321 km, 32.9° (Epoch: 28 November)

Event Time Altitude Azimuth Distance (km) Brightness Sun altitude
Rises 23:47:20 0° 216° (SW) 7,068 12.0 -11.2°
Reaches altitude 10° 23:52:24 10° 209° (SSW) 6,197 11.5 -12.3°
Maximum altitude 00:10:26 42° 147° (SSE) 4,020 9.8 -16.0°
Enters shadow 00:20:54 22° 95° (E) 4,529 9.8 -18.1°
